Temperature
18 18 18 18 17 17 17 17 17 17 17 17 18 18 18 18 18 18 18 18 18 18 18 18 18 18 18 18 17 17 17 17 17 17 17 17 17 17 16 16 16 16 16
18 18 18 18 18 18 18 17 18 18 18 18 18 18 18 18 18 18 18 18 18 18 18 18 18 18 18 18 18 18 17 17 17 17 17 17 17 17 17 16 16 16 16
18 18 18 18 18 18 18 18 18 18 18 18 18 18 18 18 18 18 18 18 18 18 18 18 18 18 18 18 18 18 18 18 17 17 17 17 17 17 17 17 16 16 16
18 18 18 18 18 18 18 18 18 18 18 18 18 18 18 18 18 18 18 18 18 18 18 18 18 18 18 18 18 18 18 18 18 17 17 17 17 17 17 17 17 16 16
18 18 18 18 18 18 18 18 18 18 18 18 18 18 18 18 18 18 18 18 18 18 18 18 18 18 18 18 18 18 18 18 18 17 17 17 17 17 17 17 17 16 16
18 18 18 18 18 18 18 18 18 18 18 18 18 18 18 18 18 18 18 18 18 18 18 18 18 18 18 18 18 18 18 18 18 18 17 17 17 17 17 17 17 16 16
18 18 18 18 18 18 18 18 18 18 18 18 18 18 19 19 19 19 19 19 19 19 18 18 18 18 18 18 18 18 18 18 18 17 17 17 17 17 17 17 17 16 16
19 18 18 18 18 18 18 18 18 18 18 18 18 18 18 19 19 19 19 19 19 19 19 18 18 18 18 18 18 18 18 18 18 17 17 17 17 17 17 17 17 16 16
19 19 18 18 18 18 18 18 18 18 18 18 18 18 18 18 19 19 19 19 19 19 19 19 19 18 18 18 18 18 18 18 17 17 17 17 17 17 17 17 16 16 16
19 19 19 19 18 18 18 18 18 18 18 18 18 18 18 18 18 18 19 19 19 19 19 19 19 18 18 18 18 18 18 18 17 17 17 17 17 17 17 17 16 16 16
19 19 19 19 19 18 18 18 18 18 18 18 18 18 18 18 18 18 18 19 19 19 19 18 18 18 18 18 18 18 18 18 17 17 17 17 17 17 17 16 16 16 16
19 19 19 19 19 18 18 18 18 18 18 18 18 18 18 18 18 18 18 18 18 18 18 18 18 18 18 18 18 17 17 17 17 17 17 17 17 17 16 16 16 16 16
19 19 19 19 19 19 19 19 18 18 18 18 18 18 18 18 18 18 18 18 18 18 18 18 18 18 18 17 17 17 17 17 17 17 17 17 17 16 16 16 16 16 16
19 19 19 19 19 19 19 19 18 18 18 18 18 18 18 18 18 18 17 17 17 18 18 18 18 18 17 17 17 17 17 17 17 17 16 16 16 16 16 16 16 16 16
20 20 19 19 19 19 19 18 18 18 18 18 18 18 18 18 18 17 17 17 17 17 17 17 17 17 17 17 17 16 16 16 16 16 16 16 16 16 16 16 16 16 16
20 20 19 19 19 19 19 18 18 18 18 18 18 18 18 18 17 17 17 17 17 17 17 17 17 17 17 16 16 16 16 16 16 16 16 16 16 16 16 16 16 15 15
20 20 19 19 19 19 19 18 18 18 18 18 18 17 17 17 17 17 17 17 17 17 16 17 16 16 16 16 16 16 15 15 15 16 15 15 15 15 15 15 15 15 15
20 19 19 19 19 19 18 18 18 18 18 18 17 17 17 17 17 17 17 16 16 16 16 16 16 16 16 16 16 15 15 15 15 15 15 15 15 15 15 15 15 15 15
20 19 19 19 19 19 18 18 18 18 18 18 17 17 17 17 17 17 16 16 16 16 16 16 16 15 15 15 15 15 15 15 15 14 14 14 14 14 14 14 14 14 14
20 19 19 19 19 19 18 18 18 18 18 17 17 17 17 17 17 17 16 16 16 16 16 15 15 15 15 15 15 15 15 14 14 14 14 14 14 14 14 14 14 14 14
19 19 19 19 19 18 18 18 18 18 18 17 17 17 17 17 17 16 16 16 16 16 15 15 15 15 14 14 14 14 14 14 14 14 14 14 14 13 13 13 13 13 13
19 19 19 19 19 18 18 18 18 18 17 17 17 17 17 17 16 16 16 16 16 15 15 15 15 14 14 14 14 14 14 13 13 13 13 13 13 13 13 13 13 13 13
19 19 18 18 18 18 18 18 17 17 17 17 17 17 16 16 16 16 16 15 15 15 15 15 14 14 14 14 14 14 13 13 13 13 13 13 13 13 12 12 12 12 12
19 18 18 18 18 18 18 17 17 17 17 17 17 16 16 16 16 16 15 15 15 15 14 14 14 14 14 14 13 13 13 13 13 13 13 13 12 12 12 12 12 12 12
18 18 18 18 18 18 17 17 17 17 17 17 16 16 16 16 16 16 15 15 14 14 14 14 14 14 14 13 13 13 13 13 12 12 12 12 12 12 12 12 12 11 11
18 17 17 17 17 17 17 17 17 16 16 16 16 16 16 15 15 15 15 14 14 14 14 14 14 13 13 13 13 13 13 12 12 12 12 12 12 11 11 11 11 11 11
Wind_Speed
3 3 2 3 4 5 6 5 4 4 3 4 5 5 4 4 3 5 9 15 15 14 13 13 13 12 12 12 13 12 12 12 11 11 11 11 10 10 9 9 9 8 8
3 2 2 2 2 3 3 3 3 2 3 3 4 4 4 5 4 6 9 13 15 15 15 14 14 14 14 14 14 14 14 13 13 13 12 12 12 11 11 11 10 9 9
5 3 2 2 2 3 4 3 3 3 4 4 4 5 4 5 5 5 7 10 12 15 16 16 16 15 15 15 15 15 15 15 15 15 14 14 14 13 13 13 12 12 11
7 5 3 3 4 4 3 3 3 3 3 3 3 4 4 4 5 6 7 9 11 12 16 19 18 17 17 17 16 17 17 17 17 17 16 16 16 15 15 14 14 13 13
8 5 3 3 5 3 3 4 3 3 3 3 4 5 5 5 5 7 7 9 11 11 13 17 20 19 19 18 18 18 18 18 18 18 18 17 17 17 17 16 16 15 15
6 5 3 4 4 3 3 2 2 3 3 4 5 4 4 5 5 6 7 7 9 11 12 13 16 18 20 20 20 20 19 20 19 19 19 19 19 19 19 18 18 17 17
6 4 3 3 3 3 3 3 2 4 4 3 3 4 5 6 7 6 6 5 6 9 11 12 14 14 15 21 22 22 21 20 20 21 21 20 20 20 20 20 20 19 18
7 6 5 4 4 3 3 3 3 3 3 3 2 2 3 3 3 6 4 5 5 4 5 9 11 13 12 12 17 22 22 21 21 21 22 22 22 22 22 21 21 20 20
7 5 5 5 4 4 3 4 4 5 3 3 3 2 2 2 3 3 4 4 4 4 4 5 8 11 14 12 12 18 21 21 20 20 20 20 21 21 21 21 21 20 20
6 6 6 5 4 3 3 4 4 4 4 4 2 3 4 2 2 3 3 3 3 3 4 5 4 5 8 9 10 10 15 18 18 18 18 18 18 19 20 21 21 20 20
5 6 5 4 4 4 4 3 2 3 3 3 3 3 3 3 4 3 4 3 3 3 4 4 3 3 5 6 5 6 10 14 16 16 16 15 15 16 16 18 19 19 19
5 6 5 5 5 4 4 3 3 4 4 3 3 3 3 2 3 3 4 4 4 4 4 3 3 2 2 3 5 5 7 10 12 13 13 13 13 13 13 14 15 17 18
4 6 6 5 4 4 4 4 4 4 4 4 4 4 3 3 3 3 3 4 3 4 3 2 1 1 1 1 3 3 5 8 9 10 10 11 11 11 11 11 12 13 14
4 5 6 5 5 4 4 4 4 5 4 4 5 4 3 3 3 2 2 2 3 3 3 2 0 1 1 1 3 3 3 6 7 8 8 8 8 8 9 9 9 9 10
4 5 6 6 5 5 5 4 3 3 3 3 3 3 2 3 2 2 3 2 2 4 3 2 1 1 1 1 2 2 2 5 6 6 6 7 7 7 7 7 7 7 7
4 4 5 5 5 5 5 4 3 3 3 3 2 2 2 2 2 2 3 2 2 3 3 2 1 1 2 2 1 1 2 4 5 6 6 6 5 5 5 5 5 5 6
4 4 5 5 5 5 5 4 5 4 4 3 2 2 1 1 2 2 2 3 3 2 3 3 2 1 1 1 1 1 3 3 3 5 5 6 5 5 5 4 4 4 4
5 5 5 5 5 5 5 5 5 4 3 3 2 1 1 1 1 2 2 3 3 2 3 3 2 1 1 0 1 2 1 1 2 4 6 6 6 6 5 4 3 2 2
5 6 6 6 5 5 4 4 4 3 3 2 2 1 1 1 2 2 2 3 3 3 2 2 3 1 1 1 1 2 1 1 1 3 5 6 6 5 4 3 3 3 3
6 6 6 6 6 5 4 4 4 4 3 2 1 1 0 0 1 2 3 2 2 3 2 2 2 1 1 1 1 1 1 1 1 1 2 3 5 5 4 4 3 3 3
7 6 6 6 5 5 5 5 4 4 3 2 2 2 1 2 1 1 2 2 3 3 2 2 1 1 1 2 2 2 2 1 1 1 0 1 3 3 3 3 3 3 3
5 6 6 6 6 5 5 5 4 4 4 3 3 2 3 3 2 1 0 1 1 2 3 3 1 1 1 2 2 2 2 2 1 1 1 0 1 1 2 3 4 4 3
5 5 5 5 5 4 6 6 5 5 5 4 3 3 3 2 2 1 2 2 1 2 3 2 2 2 1 2 2 3 2 2 2 1 0 1 1 0 2 3 6 5 4
5 5 5 5 5 4 6 6 6 5 5 4 3 3 2 2 1 1 1 1 1 1 2 1 1 2 2 2 2 3 3 3 2 1 0 1 0 1 1 3 6 5 4
5 5 5 5 5 4 5 5 5 4 4 4 3 2 2 3 2 2 1 2 1 1 1 1 1 2 2 3 2 2 3 2 2 0 0 1 1 1 1 2 5 6 5
4 4 4 4 5 4 5 6 5 4 4 4 4 4 3 3 3 1 1 2 2 2 1 1 1 2 3 3 3 2 2 2 2 0 1 1 1 1 1 1 2 4 4
Wind_Direction
165 161 172 174 188 185 184 190 201 201 205 225 227 223 233 243 220 168 167 178 184 187 193 199 203 206 208 209 209 210 211 212 214 215 217 218 219 218 216 216 216 216 217
149 162 170 160 190 189 182 181 195 200 223 231 238 235 238 234 216 186 175 186 193 197 202 206 210 210 212 213 214 214 216 218 218 219 222 223 223 222 221 220 219 219 221
158 167 205 196 195 190 193 198 208 208 221 227 228 235 235 233 223 210 194 189 197 206 209 212 215 215 215 217 219 220 221 222 222 222 223 224 224 224 222 223 223 223 224
176 184 204 203 192 204 200 198 214 224 233 239 235 241 235 221 220 218 214 208 204 205 210 215 216 217 218 221 223 225 225 226 226 224 223 224 225 225 225 227 227 227 228
184 189 198 193 195 207 209 223 192 210 228 240 245 234 231 223 218 224 220 219 212 202 199 208 215 217 219 223 225 227 228 228 227 226 225 226 228 227 228 229 229 230 230
188 194 200 197 212 211 211 225 202 215 228 236 257 257 238 230 220 223 222 222 214 210 209 203 207 218 222 224 225 227 228 228 226 226 227 227 229 229 229 230 231 231 231
193 201 225 198 223 220 212 221 226 232 236 233 251 274 260 240 225 223 223 227 220 213 210 198 196 205 214 223 225 226 227 228 227 227 227 228 229 230 230 231 232 232 233
196 207 205 215 220 222 223 230 233 249 256 229 226 267 282 284 255 237 217 224 232 223 220 213 202 203 208 206 218 224 227 229 230 230 230 230 231 232 232 233 232 231 232
198 213 198 220 226 223 211 217 228 236 251 255 227 231 261 271 296 276 246 227 213 217 229 223 213 210 211 209 209 216 221 224 229 232 233 232 232 232 232 233 233 232 232
202 208 204 211 219 231 216 222 216 232 241 257 260 238 246 265 278 300 295 274 237 228 235 252 243 220 208 206 213 203 212 218 225 230 233 234 235 235 235 235 236 236 235
206 209 203 205 210 225 228 225 216 240 251 252 260 263 257 252 240 248 277 289 290 257 234 237 242 229 211 204 201 201 204 211 219 226 233 237 239 241 240 239 239 240 240
205 204 201 198 207 222 220 213 222 234 240 253 263 270 269 260 249 243 260 276 276 272 247 234 234 223 195 175 195 199 197 203 211 219 228 234 239 241 242 244 244 244 244
202 197 200 185 202 217 218 213 220 234 232 236 245 258 268 273 278 270 270 278 285 285 263 243 236 212 222 180 157 168 193 195 204 214 223 228 232 237 241 247 250 251 250
208 182 176 181 193 208 224 208 223 229 220 227 247 249 261 269 271 274 269 279 291 289 282 273 253 166 105 120 153 186 182 190 199 209 217 221 227 234 240 244 251 253 253
203 175 175 187 197 205 220 222 225 239 226 227 249 251 251 278 276 276 266 252 265 286 298 306 351 36 66 113 143 169 187 186 188 203 214 218 225 233 239 242 247 250 251
210 174 180 192 199 202 207 214 225 226 217 225 230 253 277 291 305 297 298 295 269 269 283 295 297 335 356 346 66 170 211 185 189 199 201 207 213 221 228 231 234 240 240
202 193 195 200 201 203 206 207 220 212 215 225 244 235 250 288 322 316 313 309 308 297 283 298 326 325 331 345 344 293 227 180 174 190 192 195 199 201 208 213 216 231 228
204 201 202 202 205 206 200 205 221 216 212 217 231 247 274 287 304 303 309 301 296 284 280 291 301 287 288 286 281 272 276 172 151 176 183 188 191 190 189 187 188 199 208
206 206 202 203 206 202 197 200 207 207 212 218 223 223 260 307 308 316 299 306 310 308 298 283 287 291 313 336 319 312 323 349 192 160 169 185 189 181 179 182 185 187 183
202 201 201 202 198 194 194 197 199 199 200 196 188 194 200 249 316 304 287 304 306 308 293 274 280 304 342 328 346 326 316 304 298 185 153 174 176 172 171 171 178 184 183
205 195 200 200 193 194 201 197 199 199 185 184 195 189 153 107 83 330 308 333 327 311 300 283 277 314 347 356 351 318 324 302 316 32 73 159 152 154 159 155 159 171 172
201 196 198 194 193 201 172 171 186 179 178 184 196 195 174 146 158 176 308 333 305 302 315 315 318 330 338 349 335 317 334 325 306 10 17 310 140 144 150 153 141 135 149
197 199 205 193 181 178 165 158 182 183 178 182 190 203 228 170 171 193 213 213 217 253 263 292 323 324 329 336 315 306 308 303 286 281 318 271 167 137 133 146 153 147 141
198 198 199 193 182 187 170 167 181 186 181 182 188 196 190 137 59 11 265 229 235 250 273 254 293 310 321 309 292 286 280 273 250 266 203 261 240 200 137 152 175 171 168
202 199 195 188 184 185 180 173 180 189 194 193 181 163 161 142 97 28 283 254 252 270 346 50 194 255 275 271 283 303 298 297 296 280 12 290 295 278 204 175 182 183 182
205 199 193 189 184 181 177 175 191 199 200 194 167 144 125 132 130 106 287 285 270 271 277 279 255 249 239 236 235 236 287 296 318 325 49 325 323 5 287 193 179 186 203
Height
1546 1547 1548 1548 1549 1550 1551 1552 1553 1554 1555 1556 1557 1558 1559 1560 1561 1561 1561 1561 1562 1562 1562 1562 1563 1564 1564 1565 1566 1567 1568 1569 1570 1571 1571 1572 1573 1574 1575 1576 1577 1578 1578
1546 1547 1548 1548 1549 1550 1551 1552 1553 1554 1555 1555 1556 1557 1558 1558 1559 1560 1560 1560 1560 1560 1561 1561 1562 1562 1563 1564 1564 1565 1566 1567 1568 1569 1569 1570 1571 1572 1573 1574 1575 1576 1576
1546 1547 1547 1548 1549 1550 1550 1551 1552 1553 1554 1554 1555 1556 1556 1557 1557 1558 1558 1558 1558 1559 1559 1560 1560 1561 1561 1562 1562 1563 1563 1564 1565 1566 1567 1568 1569 1570 1571 1572 1573 1573 1574
1545 1546 1547 1547 1548 1549 1550 1551 1551 1552 1553 1553 1553 1554 1555 1555 1555 1556 1556 1556 1556 1556 1557 1558 1558 1559 1559 1559 1560 1560 1561 1562 1563 1563 1564 1565 1566 1567 1568 1569 1570 1571 1572
1545 1545 1546 1547 1547 1548 1549 1550 1550 1551 1551 1552 1552 1552 1552 1553 1553 1554 1554 1554 1555 1555 1555 1555 1556 1556 1556 1557 1557 1558 1558 1559 1560 1561 1562 1562 1563 1564 1565 1566 1567 1568 1569
1544 1545 1545 1546 1547 1547 1548 1549 1549 1549 1550 1550 1551 1551 1550 1551 1551 1551 1551 1552 1552 1552 1552 1552 1553 1553 1553 1554 1554 1555 1555 1556 1556 1557 1558 1559 1560 1561 1562 1563 1564 1565 1565
1542 1543 1544 1545 1545 1546 1546 1547 1547 1548 1548 1549 1549 1549 1548 1548 1548 1548 1549 1549 1549 1550 1550 1550 1550 1550 1550 1550 1551 1551 1552 1552 1553 1554 1555 1556 1557 1557 1558 1559 1560 1561 1561
1541 1542 1542 1543 1544 1544 1545 1545 1546 1546 1547 1547 1548 1547 1546 1547 1546 1546 1546 1546 1547 1547 1547 1548 1547 1547 1547 1547 1547 1548 1548 1549 1549 1550 1551 1552 1553 1554 1554 1555 1556 1556 1557
1539 1540 1541 1542 1542 1543 1543 1543 1544 1544 1545 1545 1546 1546 1545 1544 1544 1544 1544 1544 1544 1544 1545 1545 1545 1545 1544 1544 1543 1544 1544 1545 1546 1546 1547 1547 1548 1549 1550 1550 1551 1552 1552
1538 1538 1539 1540 1541 1541 1542 1542 1542 1542 1543 1543 1544 1544 1545 1544 1544 1542 1542 1542 1542 1542 1542 1542 1542 1542 1541 1541 1541 1540 1540 1541 1542 1542 1542 1543 1544 1544 1545 1546 1546 1547 1547
1536 1536 1537 1538 1539 1539 1540 1540 1540 1541 1541 1541 1541 1542 1542 1542 1542 1542 1540 1540 1539 1539 1539 1539 1539 1538 1538 1538 1537 1537 1536 1537 1537 1538 1538 1538 1539 1539 1540 1540 1541 1541 1542
1534 1534 1535 1536 1537 1537 1538 1538 1538 1538 1538 1538 1539 1539 1540 1540 1540 1539 1538 1537 1537 1537 1536 1536 1535 1535 1534 1534 1533 1533 1533 1533 1533 1533 1533 1534 1534 1534 1535 1535 1536 1536 1536
1532 1533 1534 1534 1534 1535 1535 1535 1536 1536 1536 1536 1536 1536 1537 1537 1537 1537 1536 1535 1534 1534 1533 1533 1532 1531 1531 1530 1530 1530 1529 1529 1529 1529 1529 1529 1529 1529 1529 1530 1530 1531 1531
1531 1532 1532 1532 1532 1532 1533 1533 1534 1534 1534 1534 1534 1534 1534 1534 1534 1534 1534 1533 1532 1531 1531 1530 1529 1528 1527 1527 1526 1526 1525 1525 1525 1525 1524 1524 1524 1524 1525 1525 1525 1525 1526
1529 1529 1529 1530 1530 1530 1531 1531 1531 1532 1532 1532 1532 1532 1531 1531 1532 1531 1531 1531 1531 1529 1528 1528 1527 1526 1525 1524 1523 1522 1521 1521 1521 1521 1520 1520 1520 1520 1520 1520 1520 1520 1521
1526 1527 1527 1527 1527 1528 1528 1529 1529 1529 1530 1530 1530 1529 1529 1529 1529 1529 1528 1528 1528 1528 1526 1525 1525 1524 1523 1521 1520 1519 1519 1518 1517 1517 1517 1516 1516 1516 1516 1516 1516 1516 1516
1523 1524 1524 1524 1525 1525 1526 1526 1527 1527 1527 1528 1527 1527 1527 1527 1526 1526 1526 1526 1525 1525 1524 1523 1522 1521 1520 1518 1517 1517 1516 1515 1515 1514 1514 1513 1513 1512 1512 1512 1511 1511 1511
1520 1520 1521 1522 1522 1523 1523 1523 1524 1525 1525 1525 1525 1525 1525 1524 1524 1523 1523 1523 1522 1522 1522 1520 1519 1518 1517 1516 1515 1515 1514 1513 1512 1511 1511 1510 1510 1509 1509 1508 1508 1507 1507
1516 1517 1518 1518 1519 1520 1520 1520 1521 1522 1522 1522 1522 1522 1522 1521 1521 1521 1520 1520 1520 1519 1519 1518 1517 1517 1516 1515 1513 1513 1512 1511 1510 1509 1509 1508 1508 1507 1506 1505 1505 1504 1503
1512 1513 1514 1515 1515 1516 1517 1518 1518 1519 1519 1519 1519 1519 1519 1519 1519 1518 1518 1517 1517 1516 1516 1516 1515 1514 1514 1513 1512 1511 1510 1509 1508 1508 1507 1506 1505 1505 1504 1503 1502 1501 1501
1508 1509 1510 1511 1512 1513 1514 1515 1515 1516 1516 1516 1516 1516 1516 1516 1516 1516 1515 1515 1514 1514 1513 1513 1513 1512 1511 1510 1510 1509 1508 1507 1506 1506 1505 1504 1503 1502 1501 1500 1500 1499 1498
1504 1505 1505 1507 1508 1509 1510 1511 1512 1513 1513 1513 1513 1513 1513 1513 1513 1513 1512 1512 1511 1511 1511 1510 1509 1509 1508 1508 1507 1507 1506 1505 1504 1504 1503 1503 1502 1501 1500 1499 1498 1497 1496
1500 1501 1502 1503 1504 1504 1505 1507 1509 1509 1509 1510 1510 1510 1510 1510 1510 1509 1509 1509 1508 1508 1508 1508 1506 1506 1505 1505 1505 1504 1503 1503 1502 1502 1501 1501 1501 1500 1499 1498 1497 1496 1495
1496 1497 1497 1498 1499 1500 1500 1502 1504 1505 1505 1506 1506 1507 1507 1507 1507 1506 1506 1505 1505 1505 1504 1504 1504 1503 1503 1502 1502 1502 1501 1501 1500 1500 1500 1499 1498 1498 1497 1497 1496 1495 1494
1492 1492 1493 1494 1495 1496 1497 1498 1500 1501 1501 1501 1502 1503 1504 1503 1504 1503 1503 1503 1502 1502 1502 1501 1501 1501 1500 1500 1499 1499 1499 1498 1498 1498 1498 1497 1496 1496 1495 1495 1494 1493 1493
1488 1489 1490 1491 1491 1492 1493 1494 1496 1497 1497 1498 1498 1499 1500 1500 1500 1500 1500 1500 1500 1499 1499 1499 1498 1498 1498 1497 1497 1496 1496 1496 1496 1496 1495 1495 1494 1494 1493 1493 1492 1491 1490